Date String (YYYY-MM-DD hh:mm:ss) UTC,Instrument flags,Ambient pressure (hPa),Sample flow (lpm),Bypass flow (lpm),Sample temperature (°C),Ambient temperature (°C),ASC tube jacket temperature (°C),LED temperature (°C),Box temperature (°C),Sample RH (%),Span deviation,Mass concentration (μg/m³),Mass concentration (μg/m³),Mass concentration (μg/m³)
DateTimeUTC,F1_M11,P_M11,Q1_M11,Q2_M11,T1_M11,T2_M11,T3_M11,T4_M11,T5_M11,U1_M11,ZSPAN_M11,X2_M11,X0_M11,X1_M11
2023-02-15 13:00:00,,0819.3,4.97,0.00,22.8,22.5,00.0,31.5,24.7,08.5,0000.0,0002.05,0004.08,0001.43
2023-02-15 13:01:00,,0819.3,5.03,0.00,22.9,23.1,00.0,31.6,24.8,08.4,0000.0,0002.06,0004.27,0001.42
2023-02-15 13:02:00,,0819.2,5.00,0.00,22.9,22.5,00.0,31.6,24.8,08.4,0000.0,0002.00,0004.39,0001.40
2023-02-15 13:03:00,,0819.3,4.99,0.00,22.9,22.0,00.0,31.6,24.6,08.4,0000.0,0001.94,0004.16,0001.38
2023-02-15 13:04:00,,0819.2,4.99,0.00,22.8,21.6,00.0,31.6,24.5,08.4,0000.0,0001.90,0003.95,0001.37
2023-02-15 13:05:00,,0819.3,5.00,0.00,22.8,21.3,00.0,31.6,24.5,08.4,0000.0,0001.88,0003.88,0001.37
2023-02-15 13:06:00,,0819.3,5.00,0.00,22.7,21.1,00.0,31.6,24.4,08.4,0000.0,0001.85,0004.16,0001.36
2023-02-15 13:07:00,,0819.3,4.96,0.00,22.7,20.9,00.0,31.6,24.3,08.5,0000.0,0001.86,0004.21,0001.36
2023-02-15 13:08:00,,0819.3,5.01,0.00,22.6,20.8,00.0,31.6,24.3,08.5,0000.0,0001.81,0004.57,0001.35
2023-02-15 13:09:00,,0819.3,5.01,0.00,22.6,20.8,00.0,31.6,24.2,08.5,0000.0,0001.76,0004.65,0001.34
2023-02-15 13:10:00,,0819.3,4.98,0.00,22.7,21.8,00.0,31.5,24.4,08.5,0000.0,0001.72,0005.38,0001.34
2023-02-15 13:11:00,,0819.3,5.01,0.00,22.8,22.8,00.0,31.5,24.7,08.4,0000.0,0001.71,0005.72,0001.35
2023-02-15 13:12:00,,0819.2,4.95,0.00,22.9,22.9,00.0,31.5,24.8,08.4,0000.0,0001.70,0005.78,0001.34
2023-02-15 13:13:00,,0819.2,5.01,0.00,22.8,22.3,00.0,31.6,24.7,08.4,0000.0,0001.71,0005.60,0001.34
2023-02-15 13:14:00,,0819.1,5.01,0.00,22.8,21.9,00.0,31.6,24.6,08.4,0000.0,0001.75,0005.69,0001.34
2023-02-15 13:15:00,,0819.1,4.98,0.00,22.8,21.4,00.0,31.6,24.4,08.4,0000.0,0001.76,0006.25,0001.34
2023-02-15 13:16:00,,0819.2,5.01,0.00,22.7,21.1,00.0,31.6,24.3,08.4,0000.0,0001.75,0006.26,0001.33
2023-02-15 13:17:00,,0819.3,5.01,0.00,22.7,20.8,00.0,31.6,24.3,08.4,0000.0,0001.72,0005.74,0001.31
2023-02-15 13:18:00,,0819.3,5.01,0.00,22.6,20.8,00.0,31.6,24.2,08.4,0000.0,0001.70,0005.77,0001.27
2023-02-15 13:19:00,,0819.3,5.01,0.00,22.7,21.6,00.0,31.5,24.4,08.4,0000.0,0001.64,0005.25,0001.24
2023-02-15 13:20:00,,0819.3,5.05,0.00,22.8,22.6,00.0,31.5,24.7,08.4,0000.0,0001.63,0005.02,0001.21
2023-02-15 13:21:00,,0819.3,5.00,0.00,22.8,22.8,00.0,31.5,24.8,08.3,0000.0,0001.58,0004.01,0001.18
2023-02-15 13:22:00,,0819.3,5.01,0.00,22.8,22.3,00.0,31.6,24.7,08.3,0000.0,0001.58,0003.76,0001.15
2023-02-15 13:23:00,,0819.2,5.02,0.00,22.8,21.8,00.0,31.6,24.5,08.3,0000.0,0001.53,0003.60,0001.12
2023-02-15 13:24:00,,0819.3,4.99,0.00,22.8,21.5,00.0,31.6,24.4,08.3,0000.0,0001.47,0004.48,0001.09
2023-02-15 13:25:00,,0819.3,5.00,0.00,22.7,21.2,00.0,31.6,24.4,08.4,0000.0,0001.40,0004.32,0001.05
2023-02-15 13:26:00,,0819.3,5.00,0.00,22.7,20.9,00.0,31.6,24.3,08.4,0000.0,0001.37,0003.83,0001.03
2023-02-15 13:27:00,,0819.3,4.98,0.00,22.6,20.7,00.0,31.6,24.2,08.4,0000.0,0001.35,0003.76,0001.00
2023-02-15 13:28:00,,0819.3,4.98,0.00,22.6,21.0,00.0,31.5,24.2,08.4,0000.0,0001.35,0004.76,0000.98
2023-02-15 13:29:00,,0819.2,4.99,0.00,22.7,22.0,00.0,31.5,24.5,08.3,0000.0,0001.38,0004.75,0000.98
2023-02-15 13:30:00,,0819.3,5.06,0.00,22.8,23.0,00.0,31.5,24.8,08.3,0000.0,0001.42,0006.09,0000.98
2023-02-15 13:31:00,,0819.3,5.04,0.00,22.9,23.3,00.0,31.5,24.9,08.2,0000.0,0001.44,0006.50,0000.99
2023-02-15 13:32:00,,0819.3,5.01,0.00,22.9,22.7,00.0,31.6,24.8,08.2,0000.0,0001.46,0006.60,0000.99
2023-02-15 13:33:00,,0819.3,5.01,0.00,22.9,22.2,00.0,31.6,24.6,08.2,0000.0,0001.43,0006.98,0000.98
2023-02-15 13:34:00,,0819.3,5.00,0.00,22.8,21.7,00.0,31.6,24.5,08.2,0000.0,0001.42,0007.25,0000.97
2023-02-15 13:35:00,,0819.4,5.00,0.00,22.8,21.4,00.0,31.6,24.4,08.2,0000.0,0001.41,0005.97,0000.97
2023-02-15 13:36:00,,0819.4,5.01,0.00,22.7,21.2,00.0,31.6,24.3,08.3,0000.0,0001.40,0006.04,0000.96
2023-02-15 13:37:00,,0819.4,5.02,0.00,22.7,20.9,00.0,31.6,24.3,08.3,0000.0,0001.43,0006.36,0000.96
2023-02-15 13:38:00,,0819.5,4.98,0.00,22.6,20.8,00.0,31.6,24.2,08.3,0000.0,0001.40,0006.27,0000.95
2023-02-15 13:39:00,,0819.5,5.02,0.00,22.6,21.4,00.0,31.5,24.4,08.3,0000.0,0001.36,0005.15,0000.95
2023-02-15 13:40:00,,0819.5,4.97,0.00,22.7,22.4,00.0,31.5,24.6,08.2,0000.0,0001.31,0004.97,0000.95
2023-02-15 13:41:00,,0819.5,5.01,0.00,22.9,23.3,00.0,31.5,24.9,08.2,0000.0,0001.32,0003.69,0000.95
2023-02-15 13:42:00,,0819.6,5.03,0.00,22.9,23.2,00.0,31.6,24.9,08.1,0000.0,0001.32,0003.34,0000.94
2023-02-15 13:43:00,,0819.5,4.98,0.00,22.9,22.5,00.0,31.6,24.8,08.1,0000.0,0001.31,0003.24,0000.95
2023-02-15 13:44:00,,0819.6,4.98,0.00,22.9,22.0,00.0,31.6,24.6,08.1,0000.0,0001.31,0002.75,0000.96
2023-02-15 13:45:00,,0819.6,5.02,0.00,22.8,21.6,00.0,31.7,24.5,08.1,0000.0,0001.33,0003.13,0000.97
2023-02-15 13:46:00,,0819.7,5.00,0.00,22.8,21.3,00.0,31.7,24.4,08.1,0000.0,0001.38,0003.86,0000.97
2023-02-15 13:47:00,,0819.7,5.00,0.00,22.7,21.0,00.0,31.6,24.4,08.1,0000.0,0001.38,0003.85,0000.98
2023-02-15 13:48:00,,0819.7,4.98,0.00,22.7,20.9,00.0,31.6,24.3,08.1,0000.0,0001.35,0003.58,0000.98
2023-02-15 13:49:00,,0819.7,5.00,0.00,22.7,21.3,00.0,31.6,24.4,08.1,0000.0,0001.37,0003.71,0001.00
2023-02-15 13:50:00,,0819.7,4.97,0.00,22.8,22.3,00.0,31.6,24.7,08.1,0000.0,0001.40,0004.06,0001.02
2023-02-15 13:51:00,,0819.7,4.97,0.00,22.9,23.2,00.0,31.6,24.9,08.1,0000.0,0001.42,0004.21,0001.04
2023-02-15 13:52:00,,0819.7,4.99,0.00,23.0,23.3,00.0,31.6,24.9,08.0,0000.0,0001.42,0004.31,0001.04
2023-02-15 13:53:00,,0819.7,5.00,0.00,23.0,22.6,00.0,31.7,24.8,08.0,0000.0,0001.43,0004.34,0001.07
2023-02-15 13:54:00,,0819.7,4.99,0.00,22.9,22.1,00.0,31.7,24.7,08.0,0000.0,0001.43,0004.31,0001.08
2023-02-15 13:55:00,,0819.8,5.00,0.00,22.9,21.6,00.0,31.7,24.6,08.0,0000.0,0001.48,0004.42,0001.10
2023-02-15 13:56:00,,0819.8,4.98,0.00,22.8,21.3,00.0,31.7,24.5,08.0,0000.0,0001.51,0004.24,0001.11
2023-02-15 13:57:00,,0819.8,5.01,0.00,22.8,21.0,00.0,31.7,24.3,08.1,0000.0,0001.53,0004.85,0001.12
2023-02-15 13:58:00,,0819.9,5.00,0.00,22.7,20.8,00.0,31.7,24.3,08.1,0000.0,0001.57,0004.91,0001.12
2023-02-15 13:59:00,,0819.9,5.02,0.00,22.7,21.1,00.0,31.6,24.3,08.1,0000.0,0001.61,0005.03,0001.14
